W5IM Weather Reports


time (UTC)temp
C
wind
direction
speed
KPH
gust
KPH
rain 1hr
cm
rain 24hr
cm
rain mn
cm
humidity
%
barometer
mb
20260506232512 30 126 14.5 20.9 0.00 0.00 0.00 71 1005.9
20260506232014 30 125 12.9 19.3 0.00 0.00 0.00 72 1005.8
20260506231513 30 126 14.5 22.5 0.00 0.00 0.00 70 1005.8
20260506230513 30 132 14.5 20.9 0.00 0.00 0.00 72 1005.8
20260506225512 30 136 12.9 19.3 0.00 0.00 0.00 71 1005.8
20260506225013 30 146 12.9 16.1 0.00 0.00 0.00 71 1005.8
20260506224512 30 137 11.3 19.3 0.00 0.00 0.00 71 1005.8
20260506224013 30 117 11.3 19.3 0.00 0.00 0.00 71 1005.9
20260506223513 30 137 14.5 20.9 0.00 0.00 0.00 71 1005.8
20260506223013 31 141 14.5 22.5 0.00 0.00 0.00 70 1005.7
20260506222013 31 147 14.5 19.3 0.00 0.00 0.00 67 1005.6
20260506221512 31 133 11.3 19.3 0.00 0.00 0.00 67 1005.6
20260506220513 31 137 14.5 19.3 0.00 0.00 0.00 69 1005.6
20260506220012 30 150 14.5 19.3 0.00 0.00 0.00 69 1005.6
20260506215513 31 153 11.3 19.3 0.00 0.00 0.00 68 1005.6
20260506215014 31 132 11.3 16.1 0.00 0.00 0.00 69 1005.7
20260506214513 31 131 11.3 19.3 0.00 0.00 0.00 67 1005.7
20260506214012 31 139 14.5 20.9 0.00 0.00 0.00 68 1005.7
20260506213512 31 142 8.0 14.5 0.00 0.00 0.00 69 1005.8
20260506213013 31 142 11.3 16.1 0.00 0.00 0.00 68 1005.8
20260506212513 31 114 4.8 12.9 0.00 0.00 0.00 68 1005.9
20260506212012 30 141 6.4 14.5 0.00 0.00 0.00 67 1005.9
20260506211512 30 126 4.8 12.9 0.00 0.00 0.00 69 1005.9
20260506211013 30 106 8.0 11.3 0.00 0.00 0.00 69 1006.0
20260506210513 30 138 6.4 11.3 0.00 0.00 0.00 71 1006.1
20260506210013 30 162 8.0 11.3 0.00 0.00 0.00 71 1006.1
20260506205512 30 151 8.0 11.3 0.00 0.00 0.00 72 1006.2
20260506205013 30 150 9.7 12.9 0.00 0.00 0.00 72 1006.1
20260506204513 30 137 6.4 11.3 0.00 0.00 0.00 71 1006.2
20260506204013 30 144 8.0 11.3 0.00 0.00 0.00 72 1006.3
20260506203512 30 150 4.8 11.3 0.00 0.00 0.00 73 1006.4
20260506203012 30 132 4.8 9.7 0.00 0.00 0.00 73 1006.4
20260506202512 30 151 4.8 12.9 0.00 0.00 0.00 73 1006.5
20260506202012 29 161 6.4 12.9 0.00 0.00 0.00 73 1006.5
20260506201512 29 114 9.7 14.5 0.00 0.00 0.00 73 1006.6
20260506201013 29 141 8.0 12.9 0.00 0.00 0.00 73 1006.6
20260506200513 29 179 8.0 12.9 0.00 0.00 0.00 72 1006.7
20260506200012 29 159 8.0 11.3 0.00 0.00 0.00 72 1006.9
20260506195513 30 164 8.0 11.3 0.00 0.00 0.00 72 1006.9
20260506195013 30 126 11.3 14.5 0.00 0.00 0.00 71 1007.0
20260506194512 30 192 4.8 14.5 0.00 0.00 0.00 72 1007.0
20260506194012 30 154 8.0 14.5 0.00 0.00 0.00 72 1007.1
20260506193513 30 193 4.8 9.7 0.00 0.00 0.00 72 1007.3
20260506193012 30 172 8.0 12.9 0.00 0.00 0.00 72 1007.3
20260506192513 30 185 4.8 8.0 0.00 0.00 0.00 72 1007.5
20260506192013 30 207 4.8 12.9 0.00 0.00 0.00 72 1007.5
20260506191515 30 155 6.4 11.3 0.00 0.00 0.00 73 1007.5
20260506190513 30 75 1.6 8.0 0.00 0.00 0.00 73 1007.6
20260506190013 29 353 3.2 8.0 0.00 0.00 0.00 74 1007.6
20260506185513 29 348 1.6 4.8 0.00 0.00 0.00 76 1007.7
20260506185013 28 130 3.2 8.0 0.00 0.00 0.00 76 1007.8
20260506184512 28 97 1.6 4.8 0.00 0.00 0.00 76 1007.8
20260506184013 28 129 3.2 8.0 0.00 0.00 0.00 76 1007.9
20260506182514 28 75 0.0 3.2 0.00 0.00 0.00 80 1008.0
20260506182012 28 235 1.6 3.2 0.00 0.00 0.00 79 1008.1
20260506181013 28 11 1.6 4.8 0.00 0.00 0.00 80 1008.3
20260506180512 28 33 3.2 4.8 0.00 0.00 0.00 81 1008.3
20260506180012 27 54 0.0 3.2 0.00 0.00 0.00 81 1008.4
20260506175512 27 64 0.0 4.8 0.00 0.00 0.00 81 1008.4
20260506175012 27 50 3.2 4.8 0.00 0.00 0.00 81 1008.3
20260506174512 27 77 0.0 4.8 0.00 0.00 0.00 81 1008.3
20260506174013 27 147 3.2 3.2 0.00 0.00 0.00 81 1008.3
20260506173512 27 247 0.0 0.0 0.00 0.00 0.00 81 1008.4
20260506173013 27 247 0.0 3.2 0.00 0.00 0.00 82 1008.4
20260506172513 27 240 1.6 3.2 0.00 0.00 0.00 81 1008.3
20260506172013 27 221 3.2 4.8 0.00 0.00 0.00 80 1008.3
20260506171515 27 206 1.6 4.8 0.00 0.00 0.00 80 1008.3
20260506171012 27 210 1.6 9.7 0.00 0.00 0.00 80 1008.2
20260506170513 27 225 4.8 9.7 0.00 0.00 0.00 80 1008.1
20260506170012 27 204 6.4 11.3 0.00 0.00 0.00 80 1008.0
20260506165513 27 189 8.0 11.3 0.00 0.00 0.00 80 1008.1
20260506165013 27 218 8.0 12.9 0.00 0.00 0.00 79 1008.0
20260506164513 27 204 8.0 16.1 0.00 0.00 0.00 79 1008.0
20260506163512 27 203 8.0 16.1 0.00 0.00 0.00 80 1007.8
20260506163013 27 208 9.7 16.1 0.00 0.00 0.00 81 1007.8
20260506162512 27 181 9.7 14.5 0.00 0.00 0.00 82 1007.7
20260506162013 27 196 11.3 16.1 0.00 0.00 0.00 82 1007.7
20260506161512 27 185 9.7 16.1 0.00 0.00 0.00 82 1007.7
20260506161012 27 194 11.3 16.1 0.00 0.00 0.00 80 1007.7
20260506160512 27 182 8.0 14.5 0.00 0.00 0.00 81 1007.6
20260506160012 27 195 8.0 12.9 0.00 0.00 0.00 79 1007.5
20260506155512 27 175 9.7 19.3 0.00 0.00 0.00 81 1007.4
20260506155012 27 164 8.0 14.5 0.00 0.00 0.00 79 1007.4
20260506154513 27 178 9.7 14.5 0.00 0.00 0.00 80 1007.4
20260506153512 27 179 11.3 20.9 0.00 0.00 0.00 78 1007.3
20260506153013 27 194 11.3 22.5 0.00 0.00 0.00 79 1007.3
20260506152512 27 200 16.1 25.7 0.00 0.00 0.00 79 1007.3
20260506151512 27 155 14.5 22.5 0.00 0.00 0.00 80 1007.2
20260506151012 27 168 11.3 19.3 0.00 0.00 0.00 80 1007.2
20260506150512 27 191 9.7 16.1 0.00 0.00 0.00 80 1007.2
20260506150012 27 168 9.7 20.9 0.00 0.00 0.00 83 1007.3
20260506145513 27 193 8.0 19.3 0.00 0.00 0.00 83 1007.2
20260506145013 27 165 8.0 19.3 0.00 0.00 0.00 83 1007.2
20260506144515 27 177 14.5 22.5 0.00 0.00 0.00 82 1007.2
20260506143013 27 164 9.7 14.5 0.00 0.00 0.00 85 1007.2
20260506142512 26 159 12.9 20.9 0.00 0.00 0.00 85 1007.2
20260506141511 26 165 11.3 19.3 0.00 0.00 0.00 85 1007.2
20260506141012 26 152 14.5 19.3 0.00 0.00 0.00 86 1007.2
20260506140512 26 172 11.3 20.9 0.00 0.00 0.00 87 1007.1
20260506140012 26 150 14.5 19.3 0.00 0.00 0.00 87 1007.2
20260506135512 26 156 12.9 19.3 0.00 0.00 0.00 87 1007.3
20260506135012 26 155 12.9 16.1 0.00 0.00 0.00 88 1007.2
20260506134512 26 149 12.9 19.3 0.00 0.00 0.00 88 1007.2
20260506134012 26 152 14.5 19.3 0.00 0.00 0.00 89 1007.1
20260506133513 25 148 14.5 16.1 0.00 0.00 0.00 88 1007.2
20260506133013 25 135 11.3 16.1 0.00 0.00 0.00 89 1007.2
20260506132512 25 139 11.3 16.1 0.00 0.00 0.00 89 1007.2
20260506132012 25 148 11.3 16.1 0.00 0.00 0.00 88 1007.2
20260506131512 25 139 11.3 19.3 0.00 0.00 0.00 89 1007.2
20260506131012 25 148 12.9 16.1 0.00 0.00 0.00 89 1007.2
20260506130512 25 139 11.3 16.1 0.00 0.00 0.00 89 1007.2
20260506130012 25 141 9.7 14.5 0.00 0.00 0.00 90 1007.1
20260506125513 25 139 11.3 14.5 0.00 0.00 0.00 89 1006.9
20260506125012 25 139 11.3 14.5 0.00 0.00 0.00 90 1006.9
20260506124512 25 147 9.7 14.5 0.00 0.00 0.00 90 1006.9
20260506124012 25 143 11.3 14.5 0.00 0.00 0.00 90 1006.9
20260506123512 25 147 11.3 14.5 0.00 0.00 0.00 90 1006.8
20260506123012 25 144 11.3 14.5 0.00 0.00 0.00 90 1006.8
20260506122012 25 142 11.3 16.1 0.00 0.00 0.00 90 1006.8
20260506121512 25 143 11.3 16.1 0.00 0.00 0.00 90 1006.8
20260506121012 25 143 12.9 16.1 0.00 0.00 0.00 90 1006.8
20260506120512 25 143 11.3 14.5 0.00 0.00 0.00 90 1006.7
20260506120014 25 146 11.3 16.1 0.00 0.00 0.00 90 1006.7
20260506115011 25 143 11.3 14.5 0.00 0.00 0.00 90 1006.6
20260506114512 25 144 11.3 16.1 0.00 0.00 0.00 90 1006.6
20260506114012 25 141 9.7 12.9 0.00 0.00 0.00 90 1006.6
20260506113512 25 138 9.7 12.9 0.00 0.00 0.00 90 1006.6
20260506113013 25 150 8.0 12.9 0.00 0.00 0.00 90 1006.7
20260506112512 25 150 8.0 12.9 0.00 0.00 0.00 90 1006.7
20260506112012 25 147 9.7 14.5 0.00 0.00 0.00 90 1006.6
20260506111512 25 146 9.7 16.1 0.00 0.00 0.00 90 1006.5
20260506111013 25 148 11.3 14.5 0.00 0.00 0.00 90 1006.5
20260506110513 25 139 11.3 16.1 0.00 0.00 0.00 90 1006.5
20260506110013 25 142 9.7 12.9 0.00 0.00 0.00 90 1006.6
20260506105513 25 139 9.7 11.3 0.00 0.00 0.00 90 1006.7
20260506105012 25 140 9.7 12.9 0.00 0.00 0.00 90 1006.6
20260506104512 25 137 9.7 12.9 0.00 0.00 0.00 90 1006.6
20260506103513 25 132 8.0 12.9 0.00 0.00 0.00 90 1006.6
20260506103013 25 140 9.7 12.9 0.00 0.00 0.00 90 1006.7
20260506102511 25 137 11.3 14.5 0.00 0.00 0.00 90 1006.7
20260506102012 25 133 11.3 14.5 0.00 0.00 0.00 90 1006.7
20260506101013 25 146 8.0 11.3 0.00 0.00 0.00 90 1006.6
20260506100512 25 150 8.0 11.3 0.00 0.00 0.00 90 1006.5
20260506100012 25 143 8.0 9.7 0.00 0.00 0.00 90 1006.5
20260506095013 25 149 4.8 8.0 0.00 0.00 0.00 90 1006.5
20260506094512 25 137 4.8 8.0 0.00 0.00 0.00 89 1006.7
20260506094017 25 132 4.8 9.7 0.00 0.00 0.00 89 1006.6
20260506093513 25 137 4.8 8.0 0.00 0.00 0.00 88 1006.6
20260506093015 25 158 8.0 11.3 0.00 0.00 0.00 88 1006.5
20260506092512 25 168 8.0 14.5 0.00 0.00 0.00 88 1006.5
20260506092012 25 161 8.0 14.5 0.00 0.00 0.00 87 1006.6
20260506091512 25 156 9.7 14.5 0.00 0.00 0.00 87 1006.6
20260506091012 25 144 11.3 22.5 0.00 0.00 0.00 86 1006.6
20260506090512 25 151 14.5 19.3 0.00 0.00 0.00 85 1006.5
20260506090012 25 156 12.9 19.3 0.00 0.00 0.00 85 1006.4
20260506085513 25 156 12.9 19.3 0.00 0.00 0.00 85 1006.3
20260506085011 25 151 14.5 20.9 0.00 0.00 0.00 86 1006.3
20260506084512 25 159 11.3 19.3 0.00 0.00 0.00 85 1006.3
20260506083512 26 161 11.3 19.3 0.00 0.00 0.00 85 1006.4
20260506083012 26 152 11.3 16.1 0.00 0.00 0.00 85 1006.4
20260506082012 25 163 14.5 22.5 0.00 0.00 0.00 85 1006.4
20260506081511 25 158 11.3 20.9 0.00 0.00 0.00 85 1006.3
20260506073012 25 149 11.3 22.5 0.00 0.00 0.00 85 1006.5
20260506072511 26 156 12.9 20.9 0.00 0.00 0.00 85 1006.5
20260506072012 25 161 11.3 20.9 0.00 0.00 0.00 86 1006.5
20260506071512 25 155 16.1 22.5 0.00 0.00 0.00 87 1006.5
20260506071012 25 168 14.5 19.3 0.00 0.00 0.00 87 1006.5
20260506062511 25 158 12.9 20.9 0.00 0.00 0.00 87 1006.8
20260506062012 25 161 14.5 20.9 0.00 0.00 0.00 88 1006.9
20260506061512 25 161 14.5 22.5 0.00 0.00 0.00 88 1006.9
20260506061012 25 158 16.1 22.5 0.00 0.00 0.00 88 1006.9
20260506060512 25 154 16.1 22.5 0.00 0.00 0.00 87 1006.9
20260506045013 25 171 12.9 27.4 0.00 0.00 0.00 87 1007.2
20260506044511 25 167 12.9 20.9 0.00 0.00 0.00 87 1007.2
20260506044012 25 169 12.9 20.9 0.00 0.00 0.00 87 1007.2
20260506043512 25 171 11.3 20.9 0.00 0.00 0.00 87 1007.2
20260506042511 25 168 14.5 27.4 0.00 0.00 0.00 87 1007.0
20260506042012 25 165 14.5 29.0 0.00 0.00 0.00 87 1007.0
20260506041511 25 171 14.5 22.5 0.00 0.00 0.00 87 1007.0
20260506041012 25 163 16.1 25.7 0.00 0.00 0.00 87 1006.9
20260506040011 25 176 14.5 25.7 0.00 0.00 0.00 87 1006.6
20260506035511 25 165 16.1 25.7 0.00 0.00 0.00 87 1006.4
20260506034512 25 178 11.3 27.4 0.00 0.00 0.00 87 1006.5
20260506034012 25 155 11.3 29.0 0.00 0.00 0.00 87 1006.4
20260506032511 25 173 12.9 20.9 0.00 0.00 0.00 86 1006.1
20260506032014 25 162 14.5 20.9 0.00 0.00 0.00 87 1006.2
20260506031511 25 161 14.5 22.5 0.00 0.00 0.00 86 1006.2
20260506031013 25 159 14.5 22.5 0.00 0.00 0.00 86 1006.0
20260506030511 25 168 12.9 22.5 0.00 0.00 0.00 86 1006.0
20260506030012 25 154 17.7 22.5 0.00 0.00 0.00 86 1005.9
20260506025512 25 167 14.5 22.5 0.00 0.00 0.00 86 1006.0
20260506024511 26 161 20.9 27.4 0.00 0.00 0.00 85 1005.6
20260506023512 26 155 16.1 25.7 0.00 0.00 0.00 85 1005.7
20260506023012 26 157 16.1 27.4 0.00 0.00 0.00 84 1005.6
20260506021518 26 159 19.3 32.2 0.00 0.00 0.00 84 1005.5
20260506021012 26 156 20.9 33.8 0.00 0.00 0.00 83 1005.4
20260506020512 26 157 20.9 29.0 0.00 0.00 0.00 83 1005.4
20260506020011 26 151 20.9 33.8 0.00 0.00 0.00 82 1005.3
20260506015011 26 150 17.7 24.1 0.00 0.00 0.00 82 1005.3
20260506014012 26 159 17.7 29.0 0.00 0.00 0.00 81 1005.2
20260506013512 26 156 14.5 24.1 0.00 0.00 0.00 81 1005.2
20260506012511 26 154 19.3 32.2 0.00 0.00 0.00 81 1005.1
20260506012012 27 155 17.7 29.0 0.00 0.00 0.00 80 1005.1
20260506011512 27 165 20.9 29.0 0.00 0.00 0.00 80 1004.9
20260506011012 27 158 17.7 29.0 0.00 0.00 0.00 80 1004.9
20260506010512 27 150 17.7 27.4 0.00 0.00 0.00 79 1004.9
20260506010011 27 145 20.9 27.4 0.00 0.00 0.00 78 1004.9
20260506005512 27 151 17.7 25.7 0.00 0.00 0.00 78 1004.7
20260506005011 27 154 20.9 27.4 0.00 0.00 0.00 78 1004.6
20260506004511 27 154 20.9 27.4 0.00 0.00 0.00 77 1004.6
20260506004011 27 165 16.1 27.4 0.00 0.00 0.00 76 1004.6
20260506003511 27 156 24.1 33.8 0.00 0.00 0.00 76 1004.6
20260506002511 27 154 22.5 32.2 0.00 0.00 0.00 75 1004.5
20260506002012 28 157 19.3 32.2 0.00 0.00 0.00 74 1004.5
20260506001512 28 157 20.9 32.2 0.00 0.00 0.00 74 1004.5
20260506001012 28 158 20.9 27.4 0.00 0.00 0.00 73 1004.4
20260506000011 28 147 24.1 35.4 0.00 0.00 0.00 71 1004.3
20260505235511 28 151 24.1 35.4 0.00 0.00 0.00 71 1004.2
20260505235012 29 157 19.3 32.2 0.00 0.00 0.00 70 1004.3
20260505234511 29 158 20.9 35.4 0.00 0.00 0.00 70 1004.1
20260505234011 29 151 20.9 32.2 0.00 0.00 0.00 70 1004.0
20260505233511 28 138 25.7 35.4 0.00 0.00 0.00 70 1004.0
20260505233012 28 145 24.1 33.8 0.00 0.00 0.00 71 1004.1